KB9ZGZ Weather Reports


Display with metric or nautical units.
time (UTC)temp
F
wind
direction
speed
MPH
gust
MPH
rain 1hr
in
rain 24hr
in
rain mn
in
humidity
%
barometer
mb
20260505180029 52 158 1.0 0.0 0.00 0.00 0.00 82 1006.2
20260505174527 52 184 0.0 0.0 0.00 0.00 0.00 77 1006.1
20260505173038 52 238 0.0 0.0 0.00 0.00 0.00 78 1005.7
20260505171525 52 109 1.0 0.0 0.00 0.00 0.00 75 1005.8
20260505170025 53 216 1.0 0.0 0.00 0.00 0.00 75 1005.8
20260505164540 53 228 0.0 0.0 0.00 0.00 0.01 75 1005.6
20260505163017 52 194 2.0 0.0 0.00 0.00 0.01 74 1005.6
20260505161517 52 312 1.0 0.0 0.00 0.00 0.01 74 1005.5
20260505153013 53 354 2.0 0.0 0.00 0.00 0.01 75 1004.6
20260505151517 52 317 2.0 0.0 0.00 0.00 0.01 76 1004.5
20260505124549 51 193 2.0 0.0 0.00 0.00 0.00 72 1005.0
20260505123046 52 213 1.0 0.0 0.00 0.00 0.00 70 1005.4
20260505121544 52 200 1.0 0.0 0.00 0.00 0.00 70 1004.9
20260505120039 53 238 2.0 0.0 0.00 0.00 0.00 68 1004.3
20260505114544 53 206 3.0 0.0 0.00 0.00 0.00 74 1003.5
20260505113037 53 210 1.0 0.0 0.00 0.00 0.00 76 1002.9
20260505111545 54 211 1.0 0.0 0.00 0.00 0.00 74 1002.9
20260505101531 55 107 2.0 0.0 0.00 0.00 0.00 79 1003.0
20260505100039 55 190 1.0 0.0 0.00 0.00 0.00 78 1002.8
20260505094526 55 196 1.0 0.0 0.00 0.00 0.00 81 1002.3
20260505093026 55 184 1.0 0.0 0.00 0.00 0.00 83 1002.1
20260505091524 54 228 1.0 0.0 0.00 0.00 0.00 82 1001.5
20260505090044 55 188 0.0 0.0 0.00 0.00 0.00 86 1001.4
20260505084522 55 191 0.0 0.0 0.00 0.00 0.00 91 1001.4
20260505083024 56 202 0.0 0.0 0.00 0.00 0.00 93 1001.3
20260505081513 57 184 0.0 0.0 0.00 0.00 0.00 94 1001.3
20260505080013 57 184 0.0 0.0 0.00 0.00 0.00 94 1001.7
20260505074509 57 184 0.0 0.0 0.00 0.00 0.00 93 1001.8
20260505073007 58 96 1.0 0.0 0.00 0.00 0.00 92 1001.4
20260505071510 58 96 0.0 0.0 0.00 0.00 0.00 92 1001.1
20260505070006 58 354 1.0 0.0 0.00 0.00 0.00 92 1001.0
20260505064502 59 86 0.0 0.0 0.00 0.00 0.00 92 1000.8
20260505063001 59 86 0.0 0.0 0.00 0.00 0.00 92 1000.2
20260505061625 59 86 0.0 0.0 0.00 0.00 0.00 90 999.8
20260505060058 59 30 0.0 0.0 0.00 0.00 0.00 89 1000.2
20260505054604 60 30 1.0 0.0 0.00 0.00 0.00 88 999.7
20260505053050 61 224 1.0 0.0 0.00 0.00 0.00 85 1000.8
20260505051546 62 129 1.0 0.0 0.00 0.00 0.00 83 998.6
20260505041541 69 98 1.0 0.0 0.00 0.00 0.00 72 997.3
20260505040041 69 106 2.0 0.0 0.00 0.00 0.00 73 997.0
20260505034538 69 115 2.0 0.0 0.00 0.00 0.00 74 996.9
20260505033046 68 98 2.0 0.0 0.00 0.00 0.00 75 997.0
20260505031537 67 90 2.0 0.0 0.00 0.00 0.00 77 997.3
20260505030037 65 113 2.0 0.0 0.00 0.00 0.00 82 997.2
20260505024556 64 60 0.0 0.0 0.00 0.00 0.00 84 997.2
20260505023037 65 60 0.0 0.0 0.00 0.00 0.00 82 997.3
20260505021542 67 60 0.0 0.0 0.00 0.00 0.00 79 997.2
20260505020021 69 60 0.0 0.0 0.00 0.00 0.00 74 997.0
20260505014521 71 60 1.0 0.0 0.00 0.00 0.00 68 996.7
20260505013015 71 107 1.0 0.0 0.00 0.00 0.00 66 996.7
20260505011514 71 40 1.0 0.0 0.00 0.00 0.00 66 996.6
20260505010012 71 109 1.0 0.0 0.00 0.00 0.00 65 996.5
20260505004546 72 74 2.0 0.0 0.00 0.00 0.00 63 996.5
20260505003041 74 64 3.0 0.0 0.00 0.00 0.00 60 996.5
20260505001538 75 44 2.0 0.0 0.00 0.00 0.00 59 996.5
20260505000039 75 70 3.0 0.0 0.00 0.00 0.00 58 996.5
20260504234537 76 101 3.0 0.0 0.00 0.00 0.00 59 996.8
20260504233048 76 98 3.0 0.0 0.00 0.00 0.00 58 997.2
20260504231534 76 100 3.0 0.0 0.00 0.00 0.00 57 997.6
20260504230033 76 157 3.0 0.0 0.00 0.00 0.00 57 997.7
20260504224532 77 68 3.0 0.0 0.00 0.00 0.00 57 997.8
20260504223036 76 216 2.0 0.0 0.00 0.00 0.00 61 998.1
20260504221535 75 120 3.0 0.0 0.00 0.00 0.00 60 998.1
20260504220028 75 80 3.0 0.0 0.00 0.00 0.00 59 998.2
20260504214527 76 105 3.0 0.0 0.00 0.00 0.00 58 998.2
20260504213025 76 78 3.0 0.0 0.00 0.00 0.00 58 998.4
20260504211522 77 95 4.0 0.0 0.00 0.00 0.00 56 998.4
20260504210023 77 68 4.0 0.0 0.00 0.00 0.00 56 998.2
20260504204520 76 89 5.0 0.0 0.00 0.00 0.00 58 998.6
20260504203018 76 154 5.0 0.0 0.00 0.00 0.00 57 998.6
20260504201519 76 121 5.0 0.0 0.00 0.00 0.00 56 998.7
20260504201516 76 116 5.0 0.0 0.00 0.00 0.00 56 998.7
20260504200010 77 124 3.0 0.0 0.00 0.00 0.00 56 998.6
20260504194509 76 51 4.0 0.0 0.00 0.00 0.00 56 998.7
20260504193007 76 81 4.0 0.0 0.00 0.00 0.00 58 998.8
20260504191510 76 151 5.0 0.0 0.00 0.00 0.00 56 998.9
20260504190006 75 97 5.0 0.0 0.00 0.00 0.00 57 998.9
20260504184602 75 93 4.0 0.0 0.00 0.00 0.00 58 998.8
20260504183105 74 89 4.0 0.0 0.00 0.00 0.00 57 999.1
20260504181555 74 110 4.0 0.0 0.00 0.00 0.00 59 999.1